Location: Unspecified
(0.0000°N, 0.0000°E)
Time: 09:51:43
(UTC+00:00)

GALILEO-FM3 - Visible Passes

Search period start: 23 January 2019 00:00
Search period end: 02 February 2019 00:00
Orbit: 23217 x 23227 km, 54.9° (Epoch: 22 January)

Date Brightness Start Highest point End Pass type
(mag) Time Alt. Az. Time Alt. Az. Time Alt. Az.
24 Jan ? 03:22:56 10° SW 06:02:21 42° W 15:54:13 10° SSE visible
25 Jan ? 14:14:59 10° NNW 17:14:46 55° W 02:43:50 10° NE visible
27 Jan ? 01:07:40 10° SSW 04:27:06 68° W 13:24:37 10° SE visible
28 Jan ? 11:57:46 10° NNW 15:39:18 81° W 23:16:19 10° ENE visible
29 Jan ? 22:34:11 10° SSW 02:51:33 85° E 06:40:56 10° NNE daylight
31 Jan ? 05:18:52 10° SW 06:56:12 18° W 17:28:58 10° SSE visible
